Location: M?digepalle
(16.1753°N, 80.3496°E)
Time: 08:22:30
(UTC+00:00)

Delta 7925 Rocket - Pass Details

Date: 29 October 2020
Orbit: 645 x 1648 km, 26.3° (Epoch: 27 November)

Event Time Altitude Azimuth Distance (km) Brightness Sun altitude
Rises 13:07:59 0° 253° (WSW) 3,988 9.1 -14.5°
Reaches altitude 10° 13:11:07 10° 255° (WSW) 2,860 7.8 -15.3°
Maximum altitude 13:17:53 71° 339° (NNW) 910 3.9 -16.9°
Enters shadow 13:20:55 27° 57° (ENE) 1,474 4.4 -17.6°
